Home > Weather > Cayenne > Past weeks

Flag for French Guiana Past Weather in Cayenne, French Guiana — Yesterday and Last 2 Weeks

Now
79 °F

Mostly cloudy.


Feels Like: 82 °F
Forecast: 80 / 87 °F
Wind: No wind

Location: Cayenne / Rochambeau

Current Time: Jun 28, 2016 at 7:49:26 PM

Latest Report: Jun 28, 2016 at 7:00 PM


Visibility: N/A

Pressure: 29.92 "Hg

Humidity: 84%

Dew Point: 73 °F

Location of CayenneLocation

Past Weather in Cayenne — Graph

°F

Cayenne Temperature Yesterday

Maximum temperature yesterday: 88 °F (at 11:00 AM)
Minimum temperature yesterday: 72 °F (at 5:30 AM)
Average temperature yesterday: 77 °F

High & Low Weather Summary for the Past Weeks

 TemperatureHumidityPressure
High91 °F (Jun 25, 1:00 PM)100% (Jun 13, 10:00 PM)30.04 "Hg (Jun 13, 10:00 PM)
Low72 °F (Jun 23, 6:30 AM)55% (Jun 26, 11:30 AM)29.83 "Hg (Jun 25, 3:30 PM)
Average78 °F88%29.95 "Hg
* Reported Jun 13 6:00 PM — Jun 28 6:30 PM, Cayenne, Weather by CustomWeather, © 2016

Note: Actual official high and low records may vary slightly from our data, if they occured in-between our weather recording intervals... More about our weather records

Advertising

Cayenne Weather History for the Previous 24 Hours

Scroll right to see more
 ConditionsComfort  
Time TempWeatherWind HumidityBarometerVisibility
6:30 PM
Tue, Jun 28
81 °FOvercast.3 mph79%29.92 "HgN/A
6:00 PM81 °FMostly cloudy.3 mph79%29.92 "HgN/A
5:30 PM81 °FPartly sunny.6 mph79%29.92 "HgN/A
5:00 PM79 °FBroken clouds.7 mph89%29.92 "HgN/A
4:30 PM84 °FOvercast.9 mph70%29.89 "HgN/A
4:00 PM82 °FMore clouds than sun.10 mph74%29.92 "HgN/A
3:30 PM84 °FBroken clouds.12 mph70%29.92 "HgN/A
3:00 PM86 °FPartly sunny.13 mph70%29.92 "HgN/A
2:30 PM84 °FScattered clouds.12 mph74%29.92 "HgN/A
2:00 PM82 °FPartly sunny.15 mph79%29.95 "HgN/A
1:30 PM82 °FBroken clouds.7 mph79%29.95 "HgN/A
1:00 PM82 °FPartly sunny.7 mph79%29.95 "HgN/A
12:30 PM81 °FBroken clouds.9 mph84%29.98 "HgN/A
12:00 PM81 °FMostly cloudy.10 mph84%29.98 "HgN/A
11:30 AM81 °FBroken clouds.7 mph84%29.98 "HgN/A
11:00 AM81 °FPartly sunny.3 mph94%29.98 "HgN/A
10:30 AM79 °FRain. Fog.8 mph89%29.98 "Hg1 mi
10:00 AM84 °FPartly sunny.7 mph74%29.98 "HgN/A
9:30 AM84 °FScattered clouds.7 mph79%29.98 "HgN/A
9:00 AM81 °FPassing clouds.3 mph79%29.98 "HgN/A
8:30 AM79 °FPartly sunny.6 mph84%29.98 "HgN/A
8:00 AM75 °FPartly sunny.3 mph94%29.98 "HgN/A
7:30 AM75 °FHeavy rain. Fog.6 mph94%29.98 "Hg2 mi
7:00 AM73 °FScattered clouds.1 mph100%29.95 "HgN/A
6:30 AM73 °FLight rain. Broken clouds.2 mph100%29.95 "HgN/A
6:00 AM73 °FPartly cloudy.No wind100%29.95 "HgN/A
5:30 AM73 °FPassing clouds.2 mph100%29.95 "HgN/A
5:00 AM73 °FPartly cloudy.3 mph100%29.95 "HgN/A
4:30 AM73 °FMostly cloudy.No wind100%29.95 "HgN/A
4:00 AM73 °FClear.No wind100%29.95 "Hg10 mi
3:30 AM73 °FClear.No wind100%29.95 "Hg10 mi
3:00 AM73 °FClear.No wind100%29.95 "Hg10 mi
2:30 AM73 °FClear.1 mph100%29.95 "Hg10 mi
2:00 AM73 °FMild.2 mph100%29.95 "HgN/A
1:30 AM73 °FClear.No wind100%29.95 "Hg10 mi
1:00 AM73 °FClear.No wind100%29.95 "Hg10 mi
12:30 AM73 °FOvercast.No wind100%29.98 "HgN/A
12:00 AM73 °FClear.1 mph100%29.98 "Hg10 mi
11:30 PM
Mon, Jun 27
73 °FMostly cloudy.2 mph100%29.98 "HgN/A
11:00 PM73 °FOvercast.No wind100%29.98 "HgN/A
10:30 PM73 °FPassing clouds.No wind100%29.98 "HgN/A
10:00 PM73 °FPassing clouds.3 mph100%29.98 "HgN/A
9:30 PM73 °FPassing clouds.No wind100%29.98 "HgN/A
9:00 PM73 °FPassing clouds.1 mph100%29.98 "HgN/A
8:30 PM73 °FPassing clouds.No wind100%29.98 "HgN/A
8:00 PM73 °FPassing clouds.2 mph100%29.95 "HgN/A
7:30 PM73 °FPassing clouds.5 mph100%29.95 "HgN/A
7:00 PM75 °FPassing clouds.3 mph94%29.95 "HgN/A
Weather by CustomWeather, © 2016

See weather overviewHow to use our weather pages